www.pogodaiklimat.ru
ПОГОДА в Кингстоне
Время
(UTC), дата
18 9.10
21 9.10
00 10.10
03 10.10
06 10.10
09 10.10
12 10.10
15 10.10
18 10.10
21 10.10
00 11.10
03 11.10
06 11.10
09 11.10
12 11.10
15 11.10
18 11.10
21 11.10
00 12.10
03 12.10
06 12.10
09 12.10
12 12.10
15 12.10
18 12.10
21 12.10
00 13.10
03 13.10
06 13.10
09 13.10
12 13.10
15 13.10
18 13.10
21 13.10
00 14.10
03 14.10
06 14.10
12 14.10
15 14.10
18 14.10
21 14.10
00 15.10
03 15.10
06 15.10
09 15.10
12 15.10
15 15.10
18 15.10
21 15.10
00 16.10
03 16.10
06 16.10
09 16.10
12 16.10
15 16.10
Ветер
(напр.,м/с)
Видим. Явления Облачность Т
(С)
Тd
(С)
f
(%)
Тe
(С)
Тes
(С)
Комфортность P
(гПа)
Po
(гПа)
Тmin
(С)
Tmax
(С)
R
(мм)
R24
(мм)
S
(см)
ЮВ 10 20 км пыль 8/6 600 м
[Cb cap Ac As Ci ing]
+32.4 +26.5 71 +49 +49 опасность
перегрева
1010.6 1010.1 +25.9 +33.4
С 8 15 км гроза без осадков 9/8 540 м
[Cb cap Ci ing]
+27.6 +23.7 79 +38 +38 очень
душно
1010.7 1010.2
ЮВ 6 18 км пыль {гроза} 9/5 540 м
[Cb cap Ci ing]
+29.1 +24.7 77 +41 +41 опасность
перегрева
1012.0 1011.5 +25.9 +33.4
С 3 16 км пыль 9/4 600 м
[Cb cap Ci sp]
+28.3 +22.9 73 +38 +38 очень
душно
1012.2 1011.7
С 3 18 км пыль 8/1 660 м
[Cu Sc Ci sp]
+28.3 +24.2 78 +39 +39 очень
душно
1011.6 1011.1 +25.9 +33.4
С 5 24 км пыль 3/1 720 м
[Cu Sc Ci sp]
+27.0 +22.7 77 +36 +36 очень
душно
1010.1 1009.6
С 4 14 км пыль 8/3 600 м
[Cb cap Ci ing]
+27.6 +26.8 95 +43 +43 опасность
перегрева
1011.8 1011.3 +25.2 +33.4
ЮВ 9 10 км пыль 9/1 660 м
[Cu Sc Ci sp]
+31.3 +22.2 59 +40 +42 очень
душно
1013.0 1012.5
ЮВ 9 14 км пыль 9/1 660 м
[Cu Sc Ci sp]
+32.3 +24.8 65 +46 +47 опасность
перегрева
1010.4 1009.9 +25.2 +33.2
Ю 9 8000 м пыль 8/1 660 м
[Cb cap Ac lent Ci ing]
+30.7 +22.8 63 +41 +41 опасность
перегрева
1008.8 1008.3
ЮВ 8 10 км зарница 8/1 660 м
[Cu Sc Ac inh]
+29.8 +22.2 64 +39 +39 очень
душно
1010.0 1009.5 +25.2 +33.2
С 5 10 км пыль 8/1 660 м
[Cb cap Ci ing]
+28.1 +22.0 70 +37 +37 очень
душно
1011.6 1011.1
С 2 10 км пыль 6/1 660 м
[Cu Sc Cs]
+27.3 +23.4 79 +37 +37 очень
душно
1010.5 1010.1 +25.2 +33.2
СЗ 3 10 км пыль 4/1 660 м
[Cu Sc Ci sp]
+26.2 +20.4 70 +32 +32 очень
душно
1009.5 1009.0
СЗ 4 15 км пыль 3/1 660 м
[Cu Sc Ci sp]
+27.0 +21.4 71 +34 +35 очень
душно
1010.9 1010.4 +24.1 +33.2
СЗ 3 20 км пыль 3/1 720 м
[Cu hum Ci sp]
+30.3 +20.5 56 +37 +46 очень
душно
1012.0 1011.5
Ю 9 18 км пыль 4/1 720 м
[Cu med, cong Ci sp]
+32.0 +24.2 63 +44 +46 опасность
перегрева
1010.1 1009.6 +24.1 +32.3
ЮВ 9 10 км в посл. час гроза 6/5 600 м
[Cb cap Ac cuf Ci ing]
+30.1 +23.4 67 +41 +41 опасность
перегрева
1008.7 1008.2
СВ 3 13 км пыль {гроза} 8/1 660 м
[Cb cap Ci sp]
+28.1 +24.7 82 +40 +40 очень
душно
1010.6 1010.1 +24.1 +32.3
С 3 13 км пыль 6/1 660 м
[Cu Sc Ci sp]
+28.1 +22.5 72 +37 +37 очень
душно
1012.5 1012.0
СВ 2 13 км пыль 6/1 660 м
[Cu Sc Ci sp]
+26.8 +23.7 83 +37 +37 очень
душно
1011.4 1010.9 +24.1 +32.3
СЗ 4 13 км пыль 6/1 660 м
[Cu Sc Ci sp]
+26.6 +21.2 72 +34 +34 очень
душно
1009.8 1009.3
С 3 10 км пыль 9/1 660 м
[Cu Sc Ci sp]
+26.9 +21.9 74 +35 +35 очень
душно
1010.9 1010.4 +24.1 +32.3
СЗ 3 10 км пыль 8/1 720 м
[Cu Sc Ci sp]
+29.8 +20.6 58 +37 +45 очень
душно
1012.4 1011.9
Ю 9 20 км пыль 6/1 720 м
[Cu med, cong Ci sp]
+32.2 +25.7 69 +47 +49 опасность
перегрева
1010.9 1010.4 +25.2 +32.6
ЮВ 9 18 км пыль 8/6 600 м
[Cb cap Ac cuf Ci ing]
+30.1 +22.2 63 +39 +39 очень
душно
1009.9 1009.4
С 4 18 км пыль 9/1 660 м
[Cb cap Ac cuf Ci ing]
+29.2 +22.0 65 +38 +38 очень
душно
1010.8 1010.3 +25.2 +32.6
С 5 18 км пыль 9/1 660 м
[Cu Sc Ac cuf Ci ing]
+26.9 +20.6 68 +33 +33 очень
душно
1011.7 1011.3
С 3 15 км пыль 8/1 660 м
[Cu Sc Cs]
+26.3 +22.0 77 +34 +34 очень
душно
1011.1 1010.6 +25.1 +32.6
С 5 15 км пыль 5/1 660 м
[Cu Sc Ci sp]
+26.1 +17.8 60 +30 +30 душно 1010.0 1009.5
СЗ 2 15 км пыль 5/1 660 м
[Cb cap Ci sp]
+26.6 +22.2 77 +35 +35 очень
душно
1012.2 1011.7 +24.2 +32.6
СЗ 3 20 км пыль 9/1 600 м
[Cb cap Cs]
+31.4 +19.6 50 +37 +46 очень
душно
1013.5 1013.0
ЮВ 12 20 км пыль 6/3 600 м
[Cb cap Ac cuf Ci ing]
+32.2 +25.1 66 +46 +46 опасность
перегрева
1010.9 1010.4 +24.2 +33.7
ЮВ 13 18 км слаб. ливневой дождь 9/6 600 м
[Cb cap Ac cuf Ci ing]
+29.8 +23.2 68 +40 +40 очень
душно
1010.3 1009.8
ЮВ 6 20 км осадки на расстоянии {гроза, ливн. осадки} 9/9 600 м
[]
+29.5 +24.6 75 +42 +42 опасность
перегрева
1011.9 1011.4 +24.2 +33.7 0.0
ЮВ 5 20 км пыль 9/3 600 м
[Cb cap Ac cuf Ci ing]
+28.5 +22.6 70 +37 +37 очень
душно
1013.1 1012.6
СВ 3 20 км гроза без осадков 9/6 600 м
[Cb cap Ac cuf Ci ing]
+27.7 +24.3 82 +39 +39 очень
душно
1012.4 1011.9 +24.2 +33.7
В 5 18 км гроза, ливневой дождь 9/9 480 м
[Cb cap Ac cuf Ci ing]
+25.1 +24.1 94 +35 +35 очень
душно
1014.0 1013.5 +22.3 +33.7 24
С 6 26 км пыль {гроза} 9/6 540 м
[Cb cap As op Ci ing]
+27.5 +24.0 81 +38 +39 очень
душно
1015.1 1014.6
Ю 9 24 км пыль {гроза} 9/8 540 м
[Cb cap Ac cuf Ci ing]
+31.2 +26.6 77 +48 +48 опасность
перегрева
1013.6 1013.1 +22.3 +31.8 1
ЮВ 6 24 км мгла 5/4 540 м
[Cb cap Ac cuf Ci ing]
+29.2 +24.0 74 +41 +42 опасность
перегрева
1012.5 1012.0
ЮВ 5 24 км мгла 4/1 660 м
[Cu Sc Ac lent Ci ing]
+29.3 +23.7 72 +40 +40 очень
душно
1012.7 1012.2 +22.3 +32.1
СВ 3 24 км мгла 8/3 660 м
[Cu Sc Ci sp]
+28.0 +21.4 67 +35 +35 очень
душно
1014.6 1014.1
С 6 24 км мгла 4/1 660 м
[Cu Sc Ci sp]
+27.3 +26.4 95 +42 +42 опасность
перегрева
1014.0 1013.5 +22.3 +32.1
С 4 24 км мгла 3/1 720 м
[Cu Sc Ci sp]
+26.0 +21.9 78 +33 +33 очень
душно
1013.2 1012.7
СЗ 3 10 км мгла 3/1 660 м
[Cu Sc Ci sp]
+26.3 +23.7 86 +36 +36 очень
душно
1014.7 1014.2 +24.4 +32.1
СЗ 3 26 км мгла 1/1 720 м
[Cu Sc Ci sp]
+31.0 +22.8 62 +41 +51 опасность
перегрева
1015.3 1014.8
Ю 6 20 км осадки на расстоянии 4/3 600 м
[Cb cap Ac cuf Ci ing]
+31.8 +21.5 54 +40 +44 очень
душно
1013.3 1012.8 +24.4 +32.2
Ю 6 4000 м осадки на расстоянии {ливн. осадки} 8/5 600 м
[Cb cap Ci ing]
+30.1 +23.7 69 +41 +42 опасность
перегрева
1012.0 1011.5
С 4 20 км мгла 6/4 600 м
[Cu Sc Ci sp]
+26.9 +25.5 92 +39 +39 очень
душно
1013.0 1012.5 +24.4 +32.3 10
С 3 20 км мгла 4/1 660 м
[Cu Sc Ci sp]
+27.2 +24.1 83 +38 +38 очень
душно
1014.0 1013.5
С 4 20 км мгла 3/1 660 м
[Cu Sc Ci sp]
+27.3 +24.6 85 +39 +39 очень
душно
1013.3 1012.8 +24.4 +32.3
С 3 20 км мгла 3/1 660 м
[Cu hum Ci sp]
+26.9 +22.0 75 +35 +35 очень
душно
1012.9 1012.4
В 2 24 км мгла 5/1 600 м
[Cb cap Ci ing]
+26.4 +24.5 89 +37 +38 очень
душно
1014.5 1014.0 +24.6 +32.3
ЮЗ 3 24 км мгла 1/1 660 м
[Cu Sc Ci sp]
+30.4 +21.7 60 +39 +49 очень
душно
1015.8 1015.3
Местоположение метеостанции Кингстон (Ямайка): широта 17.93 долгота -76.78 высота над уровнем моря 14 м.
В архиве по умолчанию представлена погода в Кингстоне за последнюю неделю. Архивные данные за месяц целиком и за предыдущие месяцы, начиная с января 2011 года, Вы можете получить, выбрав интересующий диапазон дат из раскрывающегося списка и нажав кнопку "Найти!".
*Определитесь, кто Вы:
Внимание! Время в таблицах - всемирное. Для получения местного времени необходимо прибавить поправку, которая равна -5 ч.
Смотрите также архив погоды в соседних городах и на ближайших метеорологических станциях:
Партнеры нашего сайта:      
Пояснения к столбцам:
  • Ветер - указаны скорость ветра в м/с - средняя за 10 мин, порывы в срок и между сроками (в фигурных скобках) и направление, откуда дует ветер: С - северный,
  • СВ - северо-восточный, В - восточный, ЮВ - юго-восточный, Ю - южный, ЮЗ - юго-западный, З - западный, СЗ - северо-западный.
  • Видимость - горизонтальная дальность видимости в метрах или километрах. При видимости от 1 до 10 км при отсутствии осадков обычно наблюдается дымка, при ухудшении видимости до 1 км и менее - туман. В сухую погоду видимость может ухудшаться дымом, пылью или мглою.
  • Явления - указаны атмосферные явления, наблюдавшиеся в срок или в последний час перед сроком; фигурными скобками обозначены явления, наблюдавшиеся между сроками (за 1-3 часа до срока); квадратными скобками обозначены град или гололедные отложения с указанием их диаметра в мм.
  • Облачность - указаны через наклонную черту общая и нижняя облачность в баллах и высота нижней границы облаков в метрах; квадратными скобками обозначены формы облаков: Ci - перистые, Cs - перисто-слоистые, Cc - перисто-кучевые, Ac - высококучевые, As - высокослоистые, Sc - слоисто-кучевые, Ns - слоисто-дождевые, Cu - кучевые, Cb - кучево-дождевые. Подробнее классификацию облаков см. в Атласе облаков (PDF).
  • T - Температура воздуха - температура, измеренная на высоте 2 м над землей.
  • Td - Температура точки росы - температура, при понижении до которой содержащийся в воздухе водяной пар достигнет насыщения.
  • f - Относительная влажность воздуха - влажноcть воздуха, измеренная на высоте 2 м над землей.
  • Te - Эффективная температура - температура, которую ощущает одетый по сезону человек в тени. Характеристика душности погоды. При расчете учитывается влияние влажности воздуха и скорости ветра на теплоощущения человека.
  • Tes - Эффективная температура на солнце - температура, которую ощущает человек, с поправкой на солнечный нагрев. Характеристика знойности погоды. Зависит от высоты солнца над горизонтом, облачности и скорости ветра. Ночью, в пасмурную погоду, а также при ветре 12 м/с и более поправка равна нулю.
  • P - Атмосферное давление - приведенное к уровню моря атмосферное давление.
  • Po - Атмосферное давление - измеренное на уровне метеостанции атмосферное давление.
  • Tmin - Минимальная температура - минимум температуры воздуха на высоте 2 м над землей.
  • Tmax - Максимальная температура - максимум температуры воздуха на высоте 2 м над землей.
  • R - Количество осадков - Количество выпавших осадков за период времени, мм. При наведении курсора мыши на число - период времени, за который выпало указанное количество осадков.
  • R24 - Количество осадков - Количество выпавших осадков за 24 часа, мм.
  • S - Снежный покров - Высота снежного покрова, см. При наведении курсора мыши на число - состояние снежного покрова и степень покрытия местности в баллах.